Weather History for Swansboro, NC

Change the Weather History Date:

Saturday, December 1, 2012

  Actual Average (KNKT) Record (KNKT)
Temperature  
Mean Temperature 48 °F -  
Max Temperature 61 °F 59 °F 78 °F (2001)
Min Temperature 34 °F 38 °F 26 °F (2002)
Degree Days  
Heating Degree Days 18    
Moisture  
Dew Point 40 °F    
Average Humidity 81    
Maximum Humidity 97    
Minimum Humidity 49    
Precipitation  
Precipitation 0.00 in - - ()
Sea Level Pressure  
Sea Level Pressure 30.39 in    
Wind  
Wind Speed 2 mph (SE)    
Max Wind Speed 8 mph    
Max Gust Speed -    
Visibility 8 miles    
Events      
Averages and records for this station are not official NWS values.
T = Trace of Precipitation, MM = Missing Value Source: NWS Daily Summary

Daily Weather History Graph

Daily Weather History Graph

Search for Another Location

Airport:

Trip Planner

Search our weather history database for the weather conditions in past years. The results will help you decide how hot, cold, wet, or windy it might be!

Date:

Astronomy

Dec. 01, 2012 Rise Set
Actual Time 6:57 AM EST 4:57 PM EST
Civil Twilight 6:29 AM EST 5:24 PM EST
Nautical Twilight 5:58 AM EST 5:55 PM EST
Astronomical Twilight 5:28 AM EST 6:26 PM EST
Moon 7:43 PM EST (12/1) 9:10 AM EST (12/1)
Length of Visible Light 10h 55m
Length of Day
9h 59m
Waning Gibbous, 92% of the Moon is Illuminated
Dec 1
Waning Gibbous
Dec 6
Last Quarter
Dec 13
New
Dec 20
First Quarter
Dec 28
Full

Hourly Weather History & Observations

Time (EST) Temp. Windchill Dew Point Humidity Pressure Visibility Wind Dir Wind Speed Gust Speed Precip Events Conditions
12:57 AM 36.0 °F 33.3 °F 34.0 °F 93% 30.36 in 5.0 mi NW 3.5 mph - N/A   Clear
2:57 AM 34.0 °F - 33.1 °F 96% 30.38 in 7.0 mi Calm Calm - N/A   Clear
3:57 AM 36.0 °F - 34.0 °F 93% 30.37 in 7.0 mi Calm Calm - N/A   Clear
4:57 AM 34.0 °F - 33.1 °F 96% 30.37 in 8.0 mi Calm Calm - N/A   Clear
5:57 AM 35.1 °F - 33.1 °F 92% 30.38 in 7.0 mi Calm Calm - N/A   Clear
7:57 AM 39.9 °F - 39.0 °F 97% 30.41 in 7.0 mi Calm Calm - N/A   Clear
8:57 AM 51.1 °F - 44.1 °F 77% 30.43 in 10.0 mi Calm Calm - N/A   Clear
9:57 AM 57.0 °F - 42.1 °F 57% 30.43 in 10.0 mi Calm Calm - N/A   Clear
11:57 AM 60.1 °F - 41.0 °F 49% 30.40 in 10.0 mi SE 8.1 mph - N/A   Clear
12:57 PM 61.0 °F - 42.1 °F 50% 30.38 in 10.0 mi SE 4.6 mph - N/A   Clear
1:57 PM 60.1 °F - 44.1 °F 55% 30.37 in 10.0 mi SE 6.9 mph - N/A   Clear
2:57 PM 59.0 °F - 46.0 °F 62% 30.36 in 10.0 mi ESE 5.8 mph - N/A   Clear
3:57 PM 57.0 °F - 44.1 °F 62% 30.36 in 10.0 mi ESE 6.9 mph - N/A   Clear
5:57 PM 48.0 °F - 44.1 °F 86% 30.38 in 10.0 mi Calm Calm - N/A   Clear
6:57 PM 45.0 °F - 43.0 °F 93% 30.40 in 9.0 mi Calm Calm - N/A   Clear
7:57 PM 43.0 °F - 41.0 °F 93% 30.41 in 9.0 mi Calm Calm - N/A   Clear
8:57 PM 43.0 °F - 41.0 °F 93% 30.42 in 9.0 mi Calm Calm - N/A   Clear
9:57 PM 42.1 °F - 39.9 °F 92% 30.41 in 8.0 mi Calm Calm - N/A   Clear
10:57 PM 41.0 °F - 39.0 °F 93% 30.42 in 7.0 mi Calm Calm - N/A   Clear
11:57 PM 39.9 °F - 39.0 °F 97% 30.42 in 7.0 mi Calm Calm - N/A   Clear